This is the latest recevied weather packets stored in our database for station/object IU1OPQ-3. If no packets are shown the sender has not sent any weather packets the latest 10 day(s).
| Time | Temp. | Humidity | Pressure | Rain* | Wind** | Luminosity | Snow |
|---|---|---|---|---|---|---|---|
| 1777949100 | 9.44° C | 98% | 1013.3 hPa | 1.02 mm | - | - | - |
| 1777948201 | 9.44° C | 98% | 1013.6 hPa | 0.76 mm | - | - | - |
| 1777947300 | 9.44° C | 98% | 1013.6 hPa | 1.02 mm | - | - | - |
| 1777946401 | 9.44° C | 98% | 1013.5 hPa | 1.02 mm | - | - | - |
| 1777945500 | 9.44° C | 98% | 1013.7 hPa | 1.78 mm | - | - | - |
| 1777944601 | 9.44° C | 97% | 1013.9 hPa | 2.29 mm | - | - | - |
| 1777943701 | 9.44° C | 97% | 1014.3 hPa | 2.29 mm | - | - | - |
| 1777942801 | 9.44° C | 97% | 1014.3 hPa | 2.79 mm | - | - | - |
| 1777941900 | 9.44° C | 97% | 1014.6 hPa | 3.05 mm | - | - | - |
| 1777941001 | 9.44° C | 96% | 1014.9 hPa | 3.3 mm | - | - | - |
| 1777940100 | 9.44° C | 96% | 1015.1 hPa | 3.3 mm | - | - | - |
| 1777939201 | 9.44° C | 95% | 1015.1 hPa | 2.79 mm | - | - | - |
| 1777938301 | 9.44° C | 94% | 1015.5 hPa | 1.78 mm | - | - | - |
| 1777937401 | 10° C | 92% | 1015.5 hPa | 0.76 mm | - | - | - |
| 1777936500 | 10° C | 91% | 1015.8 hPa | 0.51 mm | - | - | - |
| 1777935601 | 10° C | 91% | 1015.9 hPa | 0.51 mm | - | - | - |
| 1777934701 | 10.56° C | 88% | 1016.2 hPa | 0.51 mm | - | - | - |
| 1777933801 | 10.56° C | 86% | 1016.3 hPa | 0.51 mm | - | - | - |
| 1777932901 | 11.11° C | 85% | 1016.5 hPa | 0.25 mm | - | - | - |
| 1777932000 | 11.11° C | 84% | 1016.6 hPa | 0.25 mm | - | - | - |
| 1777931101 | 11.67° C | 79% | 1016.7 hPa | 0 mm | - | - | - |
| 1777930201 | 12.22° C | 76% | 1016.9 hPa | 0 mm | - | - | - |
| 1777929301 | 12.22° C | 73% | 1016.8 hPa | 0 mm | - | - | - |
| 1777928401 | 12.22° C | 69% | 1017 hPa | 0 mm | - | - | - |
| 1777927501 | 12.78° C | 64% | 1017.2 hPa | 0 mm | - | - | - |
* Rain latest hour (hover to see other rain measurements)
** Current wind speed in m/s (hover to see current wind gust speed)